Location: Park Creek Village Mobile Home Park
(38.2885°N, 122.4714°W)
Time: 03:15:21
(UTC+00:00)

CZ-4B R/B - Pass Details

Date: 14 December 2019
Orbit: 809 x 881 km, 99.1° (Epoch: 25 January)

Event Time Altitude Azimuth Distance (km) Brightness Sun altitude
Rises 14:43:29 0° 3° (N) 3,464 6.2 -7.0°
Reaches altitude 10° 14:46:06 10° 353° (N) 2,530 5.4 -6.5°
Maximum altitude 14:50:59 31° 293° (WNW) 1,488 4.0 -5.7°
Drops below altitude 10° 14:55:52 10° 233° (SW) 2,533 5.4 -4.8°
Sets 14:58:30 0° 223° (SW) 3,468 6.2 -4.3°
